TimeEDT,TemperatureF,Dew PointF,Humidity,Sea Level PressureIn,VisibilityMPH,Wind Direction,Wind SpeedMPH,Gust SpeedMPH,PrecipitationIn,Events,Conditions,WindDirDegrees,DateUTC
12:53 AM,51.1,50.0,96,29.98,10.0,Calm,Calm,-,N/A,,Clear,0,2013-10-08 04:53:00
1:44 AM,50.0,48.2,94,30.02,2.5,Calm,Calm,-,N/A,,Clear,0,2013-10-08 05:44:00
1:53 AM,50.0,48.0,93,30.02,10.0,Calm,Calm,-,N/A,,Clear,0,2013-10-08 05:53:00
2:47 AM,48.2,46.4,93,30.04,1.5,Calm,Calm,-,N/A,,Clear,0,2013-10-08 06:47:00
2:53 AM,48.0,46.0,93,30.04,1.0,Calm,Calm,-,N/A,,Clear,0,2013-10-08 06:53:00
3:10 AM,48.2,46.4,93,30.05,1.0,Calm,Calm,-,N/A,,Mist,0,2013-10-08 07:10:00
3:16 AM,48.2,46.4,93,30.05,0.2,Calm,Calm,-,N/A,Fog,Fog,0,2013-10-08 07:16:00
3:31 AM,48.2,46.4,93,30.05,0.5,Calm,Calm,-,N/A,Fog,Fog,0,2013-10-08 07:31:00
3:39 AM,46.4,44.6,93,30.05,1.2,Calm,Calm,-,N/A,,Scattered Clouds,0,2013-10-08 07:39:00
3:53 AM,46.0,45.0,96,30.06,9.0,NE,3.5,-,N/A,,Partly Cloudy,50,2013-10-08 07:53:00
4:53 AM,46.0,45.0,96,30.09,9.0,Calm,Calm,-,N/A,,Clear,0,2013-10-08 08:53:00
5:12 AM,44.6,44.6,100,30.12,1.8,Calm,Calm,-,N/A,,Clear,0,2013-10-08 09:12:00
5:21 AM,44.6,42.8,93,30.12,4.0,Calm,Calm,-,N/A,,Clear,0,2013-10-08 09:21:00
5:38 AM,44.6,44.6,100,30.13,2.0,Calm,Calm,-,N/A,,Clear,0,2013-10-08 09:38:00
5:53 AM,44.1,43.0,96,30.13,8.0,Calm,Calm,-,N/A,,Clear,0,2013-10-08 09:53:00
6:53 AM,44.1,43.0,96,30.15,8.0,Calm,Calm,-,N/A,,Clear,0,2013-10-08 10:53:00
7:53 AM,45.0,44.1,97,30.18,8.0,Calm,Calm,-,N/A,,Clear,0,2013-10-08 11:53:00
8:53 AM,53.1,48.9,86,30.22,10.0,Calm,Calm,-,N/A,,Clear,0,2013-10-08 12:53:00
9:53 AM,57.9,46.0,65,30.24,10.0,North,4.6,-,N/A,,Clear,360,2013-10-08 13:53:00
10:53 AM,60.1,42.1,51,30.25,10.0,NNW,11.5,-,N/A,,Clear,340,2013-10-08 14:53:00
11:53 AM,62.1,41.0,46,30.25,10.0,North,6.9,-,N/A,,Clear,360,2013-10-08 15:53:00
12:53 PM,63.0,41.0,45,30.25,10.0,NNE,4.6,-,N/A,,Clear,20,2013-10-08 16:53:00
1:53 PM,64.9,42.1,43,30.22,10.0,NNW,5.8,-,N/A,,Clear,340,2013-10-08 17:53:00
2:53 PM,64.9,41.0,42,30.22,10.0,North,8.1,-,N/A,,Clear,360,2013-10-08 18:53:00
3:53 PM,66.0,42.1,42,30.24,10.0,ENE,6.9,-,N/A,,Clear,60,2013-10-08 19:53:00
4:53 PM,64.9,41.0,42,30.24,10.0,NE,6.9,-,N/A,,Clear,40,2013-10-08 20:53:00
5:53 PM,62.1,43.0,50,30.25,10.0,NE,4.6,-,N/A,,Clear,40,2013-10-08 21:53:00
6:53 PM,55.0,46.0,72,30.27,10.0,Calm,Calm,-,N/A,,Clear,0,2013-10-08 22:53:00
7:53 PM,50.0,46.0,86,30.30,10.0,Calm,Calm,-,N/A,,Clear,0,2013-10-08 23:53:00
8:53 PM,48.0,46.0,93,30.31,10.0,Calm,Calm,-,N/A,,Clear,0,2013-10-09 00:53:00
9:53 PM,46.9,44.1,90,30.33,10.0,Calm,Calm,-,N/A,,Clear,0,2013-10-09 01:53:00
10:53 PM,46.0,44.1,93,30.35,10.0,Calm,Calm,-,N/A,,Clear,0,2013-10-09 02:53:00
11:53 PM,45.0,43.0,93,30.35,10.0,Calm,Calm,-,N/A,,Clear,0,2013-10-09 03:53:00